Location: Rioux
(40.7500°S, 175.7500°E)
Time: 09:51:13
(UTC+00:00)

IGS 5A - Pass Details

Date: 12 June 2024
Orbit: 569 x 572 km, 97.4° (Epoch: 06 July)

Event Time Altitude Azimuth Distance (km) Brightness Sun altitude
Rises 18:34:08 0° 13° (NNE) 2,770 7.4 -11.9°
Reaches altitude 10° 18:36:16 10° 12° (NNE) 1,880 6.5 -11.5°
Maximum altitude 18:40:21 86° 282° (WNW) 586 3.4 -10.8°
Drops below altitude 10° 18:44:30 10° 193° (SSW) 1,907 5.7 -10.0°
Enters shadow 18:47:33 -3° 192° (SSW) 3,182 6.9 -9.5°
